Location: Unspecified
(50.7693°N, 0.0000°E)
Time: 10:06:15
(UTC+00:00)

Vanguard 1 - Pass Details

Date: 24 June 2019
Orbit: 653 x 3830 km, 34.3° (Epoch: 20 July)

Event Time Altitude Azimuth Distance (km) Brightness Sun altitude
Exits shadow 01:50:57 13° 211° (SSW) 6,135 13.4 -12.0°
Maximum altitude 02:04:25 30° 163° (SSE) 3,948 12.7 -11.1°
Drops below altitude 10° 02:14:37 10° 108° (ESE) 4,293 13.5 -10.3°
Sets 02:17:52 0° 98° (E) 4,895 14.0 -10.0°
